Theta_e
296 296 294 293 293 291 290 290 289 288 287 287 287 287 287 288 288 288 288 287 288 287 287 287 286 286 286 285 285 285 285 284 285 285 285 284 284 283 283 283 282 281 281 280 281 281 281 281 281 281 282 282 282 281 281 281 281 281 281 281 281 281 281 280 279 280 281 281 280 280 280 280 279 280 279 280 280 281 280 281 281 280 280 280 280
296 295 294 293 291 291 290 290 289 288 287 286 287 287 287 287 288 287 287 287 287 287 287 286 286 285 285 285 284 284 284 284 284 284 284 283 282 282 282 282 281 281 280 280 280 281 281 280 280 280 281 281 280 280 280 280 280 280 280 280 280 280 280 280 280 279 279 281 279 281 279 279 277 280 278 278 279 280 280 280 281 280 279 279 279
296 295 293 292 291 291 290 288 288 287 286 286 286 286 286 286 286 286 286 286 287 286 286 285 285 285 285 284 284 284 284 283 284 284 283 282 282 281 281 282 281 280 280 280 280 281 280 280 279 279 280 279 279 279 280 280 280 280 279 280 280 280 280 280 279 278 278 279 280 278 279 278 278 278 279 279 279 280 279 280 279 279 279 279 279
295 294 292 291 290 290 288 287 285 285 285 285 285 285 285 285 285 285 286 286 285 285 285 285 285 284 284 283 283 283 283 283 283 283 283 282 282 281 281 281 281 281 281 280 280 280 279 279 279 279 279 279 279 279 279 280 280 280 279 280 279 279 279 279 279 279 278 277 279 278 278 277 278 279 279 279 280 279 279 279 279 279 279 279 278
293 292 291 290 289 288 287 286 284 284 284 284 284 284 284 284 285 284 285 285 285 284 284 284 284 284 283 283 283 282 282 282 282 282 282 282 282 282 281 281 281 280 280 279 279 279 279 279 278 278 279 279 279 279 279 279 279 280 279 279 279 279 279 279 278 279 278 277 278 278 278 278 278 278 279 278 279 278 278 278 278 278 278 278 278
293 291 290 289 288 287 286 285 284 284 284 284 283 283 284 284 284 284 284 284 284 284 283 283 283 283 283 283 283 282 282 282 282 282 282 282 281 281 280 279 279 278 278 278 278 278 278 279 278 278 278 279 279 279 279 279 279 279 279 279 279 279 278 278 278 277 277 277 277 276 278 277 277 278 279 279 277 276 277 278 278 277 277 276 277
292 291 290 289 288 286 285 285 284 284 284 284 284 284 284 284 284 283 284 284 283 283 283 283 283 283 283 283 282 282 282 282 282 281 281 281 280 279 278 278 277 277 277 277 278 278 278 278 278 278 278 279 279 279 279 279 279 279 279 279 279 278 278 278 278 277 277 277 277 277 277 278 278 277 279 279 277 276 275 275 275 277 277 276 275
291 290 289 288 287 287 286 286 285 285 285 285 284 284 284 284 283 283 284 283 283 283 283 282 283 283 282 282 282 282 281 281 280 280 280 279 279 278 277 277 276 276 277 277 277 277 277 278 278 278 279 279 280 280 279 278 279 279 279 279 279 278 278 278 277 277 277 276 276 276 277 277 277 279 279 278 276 276 277 275 273 274 275 276 275
290 290 289 288 287 287 287 287 286 286 284 283 283 283 283 283 283 283 283 283 283 283 283 282 282 282 282 281 281 281 280 279 279 279 278 278 278 277 277 277 276 276 276 276 277 277 277 277 278 278 279 279 278 279 279 279 279 279 279 279 278 278 278 278 277 277 277 276 276 277 277 276 277 277 276 276 275 274 275 275 273 274 275 274 275
290 289 288 288 287 286 286 286 286 285 283 282 282 283 283 282 282 282 282 283 282 282 282 282 282 281 280 280 280 280 279 279 279 280 280 278 278 277 277 277 277 276 276 276 276 276 277 277 278 278 278 278 277 278 278 278 279 279 279 279 278 277 277 276 276 276 276 275 275 276 275 275 276 277 276 276 276 275 274 274 273 274 274 273 274
290 289 288 288 287 286 285 285 284 283 283 282 283 282 282 282 282 282 282 282 281 281 281 280 280 279 279 279 279 279 278 278 281 282 282 281 278 277 277 277 277 277 277 276 276 276 277 277 277 277 277 278 278 278 279 279 279 279 278 279 279 278 276 275 275 275 275 275 276 275 275 275 276 277 276 275 275 274 274 273 273 273 271 270 269
291 290 289 288 287 286 285 285 284 283 283 282 283 282 282 282 281 281 281 281 281 281 280 280 280 279 279 279 278 277 276 280 283 283 283 282 280 278 278 277 277 277 277 277 277 277 276 276 276 277 277 278 278 278 278 279 279 279 279 279 279 279 278 277 275 275 274 274 275 275 275 275 276 276 275 275 274 274 274 273 272 272 270 270 270
291 291 290 288 287 286 285 285 284 283 283 283 283 282 281 280 280 280 280 281 280 280 280 279 278 278 278 277 276 276 276 281 284 284 284 283 282 279 278 278 277 277 277 277 277 277 277 276 276 276 276 278 278 278 278 279 280 280 280 280 279 279 279 279 278 276 277 276 275 275 276 276 275 276 276 275 275 273 273 272 272 271 271 270 270
290 290 288 288 287 286 285 284 284 283 283 283 282 282 280 280 280 280 280 280 279 279 279 278 278 278 277 277 276 276 276 282 284 284 284 283 283 280 278 278 277 277 277 277 277 277 277 276 276 275 276 276 277 278 278 279 279 280 279 279 279 279 279 280 279 278 278 277 276 275 277 278 276 276 276 276 274 272 271 271 272 271 270 269 271
289 289 288 288 287 286 285 284 284 283 282 282 282 281 280 280 280 280 280 279 279 278 278 278 278 277 277 277 277 276 276 283 285 285 284 284 283 281 278 278 278 277 278 277 277 277 277 277 276 276 276 275 277 277 277 277 278 278 278 278 278 278 279 279 279 279 279 279 279 279 278 278 277 277 276 276 275 274 273 272 271 271 270 270 270
288 288 288 287 286 286 285 284 284 283 282 282 282 281 280 280 280 280 280 280 280 280 279 279 277 277 277 277 277 276 276 283 285 285 285 285 284 279 278 277 277 277 277 277 277 277 277 276 276 276 276 276 277 279 278 277 276 274 274 275 276 277 277 279 280 281 280 280 280 279 278 278 278 277 276 275 275 275 274 273 272 270 268 267 267
288 288 288 287 286 286 285 284 284 283 283 282 281 280 280 280 280 280 279 279 279 279 278 278 278 277 277 277 276 276 276 282 285 285 285 285 284 278 278 277 277 277 276 277 277 276 276 276 276 276 276 276 277 279 280 278 274 273 272 272 273 273 274 277 279 280 280 280 280 279 279 279 279 279 278 278 277 275 273 270 268 270 268 266 267
288 288 288 287 286 286 285 285 283 283 282 281 281 281 281 281 280 280 279 278 278 278 279 278 277 277 277 276 277 276 276 281 285 285 285 286 283 279 278 277 277 277 276 277 277 276 276 276 276 276 276 276 278 279 280 279 274 272 271 270 270 271 272 275 276 277 279 280 280 280 280 280 280 279 278 277 276 275 271 268 269 269 267 267 266
288 287 288 287 287 286 285 285 284 283 282 282 281 281 281 281 281 280 280 279 279 279 278 278 278 278 277 277 278 277 276 280 285 285 285 286 284 280 278 277 276 276 276 276 276 276 276 276 276 276 276 276 278 279 281 280 276 273 271 270 270 270 272 274 274 275 276 277 277 278 278 278 277 276 275 275 274 274 273 271 271 269 267 267 267
289 289 288 287 287 286 285 284 284 283 283 282 282 282 281 281 280 279 279 279 278 278 278 278 276 276 277 276 277 277 276 279 283 285 286 286 286 283 280 278 277 277 277 276 276 276 276 275 276 279 279 279 278 279 280 281 278 275 273 271 270 271 274 275 275 275 275 276 276 277 277 276 274 272 272 272 272 272 272 272 271 269 267 267 267
288 288 287 286 286 285 285 284 284 283 283 283 282 281 281 280 279 278 278 278 278 277 276 277 276 276 276 276 276 277 277 277 280 285 286 286 286 284 281 279 279 278 278 277 277 276 276 276 276 278 280 280 280 280 280 281 281 277 274 272 273 275 276 275 274 276 275 275 274 275 274 273 271 270 270 271 271 271 271 272 271 270 269 267 266
288 287 286 285 285 284 284 284 284 283 283 282 281 280 280 279 279 278 278 277 276 276 276 276 276 275 276 276 276 276 278 279 278 283 285 286 286 286 283 282 281 280 279 279 278 277 277 278 277 277 279 280 281 281 281 281 282 280 277 277 278 278 276 276 275 275 275 275 274 274 273 271 269 268 268 269 270 270 270 270 271 271 271 270 268
286 286 285 284 283 283 283 283 283 283 282 282 281 279 279 278 278 278 278 277 277 276 276 276 276 276 276 276 276 277 277 278 280 280 283 285 286 287 286 284 284 282 281 280 279 279 279 279 279 279 279 280 281 282 282 282 281 280 282 281 280 279 278 277 276 275 274 274 273 272 272 270 268 268 267 268 269 269 269 269 270 270 270 270 270
285 284 284 283 283 283 283 283 283 283 282 281 281 279 279 278 278 278 278 278 277 276 276 276 276 276 276 276 276 277 277 278 279 280 281 284 285 286 287 287 286 283 282 282 282 282 281 280 280 280 280 280 280 281 282 282 281 282 282 283 282 281 279 277 276 275 273 273 272 271 271 270 268 268 268 269 269 269 269 269 269 269 269 268 269
284 283 283 283 283 283 283 283 282 282 282 282 280 280 279 279 278 278 278 278 277 277 276 276 276 276 277 277 277 277 277 277 277 279 280 281 283 285 286 286 287 286 284 283 283 283 283 282 282 281 280 280 280 281 281 281 282 282 282 282 281 280 279 278 277 274 272 271 270 270 270 270 269 269 269 269 268 268 267 267 267 267 267 267 266
283 283 283 283 283 282 282 282 282 282 282 282 281 281 280 279 279 278 278 278 278 278 277 277 277 277 277 278 278 278 277 276 276 276 277 279 280 282 283 284 285 285 285 285 284 284 283 283 282 281 280 280 279 278 279 279 280 281 281 281 280 280 279 278 276 273 272 272 271 270 270 270 268 268 267 267 266 265 266 265 265 264 264 263 263
283 283 283 282 282 282 281 282 281 281 281 282 282 281 281 280 279 279 279 279 279 279 279 278 278 278 278 278 279 279 278 276 276 275 275 276 277 278 279 280 282 282 283 284 284 284 283 283 282 281 280 280 279 279 279 279 278 278 279 279 280 280 280 279 276 274 273 272 271 270 270 269 267 265 264 264 264 265 266 264 264 264 264 264 263
283 283 282 282 282 282 282 277 280 281 281 281 281 281 281 281 280 279 279 280 279 279 279 279 278 278 278 279 279 279 279 278 277 276 275 275 275 276 277 278 278 279 280 281 281 282 282 281 281 281 280 278 278 278 278 277 277 277 277 278 279 279 279 279 278 275 273 273 272 272 267 265 264 264 264 264 264 264 264 263 263 263 264 263 262
283 282 282 282 281 281 282 281 281 281 281 281 282 282 281 281 281 281 281 282 282 281 280 280 280 280 280 279 279 278 278 278 277 278 277 276 275 275 275 275 276 277 278 280 279 280 280 280 280 278 278 277 276 276 276 276 276 276 276 276 277 277 277 276 275 274 272 272 271 268 265 264 264 264 263 263 263 263 263 262 263 262 263 263 262
281 281 281 281 281 281 281 281 281 281 281 280 280 280 277 281 282 281 280 281 282 282 282 281 281 281 280 280 280 279 279 280 280 280 279 279 278 278 277 277 278 277 277 279 279 277 277 277 278 277 277 276 276 275 275 275 275 275 275 276 275 275 273 273 272 272 272 270 268 268 266 264 264 263 263 262 263 263 263 263 262 262 261 262 261
281 281 280 281 280 281 281 280 280 280 280 280 280 279 278 278 280 280 280 280 280 281 281 281 281 281 280 279 279 281 281 280 280 280 280 280 280 279 279 279 279 279 279 277 275 275 275 275 276 277 276 276 275 275 275 275 274 274 274 274 274 272 272 271 272 271 271 269 268 268 267 265 264 263 262 263 263 263 262 263 262 262 262 261 261
281 281 281 280 279 280 281 279 279 279 279 279 279 279 278 277 277 279 279 279 279 280 280 281 280 280 280 279 278 277 279 280 280 279 280 280 280 280 280 280 280 280 279 279 275 274 275 275 275 276 276 276 275 275 275 275 275 274 274 273 273 272 271 270 271 271 270 269 267 266 265 264 264 264 263 263 263 263 262 262 262 261 261 262 261
281 280 280 279 279 278 279 278 278 278 277 276 277 278 278 278 276 276 277 279 279 279 280 280 281 281 280 280 280 278 278 278 279 280 280 280 280 280 280 280 280 280 280 278 276 275 275 275 274 275 275 275 276 276 275 275 275 274 274 273 272 271 270 271 271 270 269 268 267 266 265 265 264 264 263 262 262 262 262 262 262 261 261 260 260
279 279 278 278 278 278 278 278 277 278 277 277 277 277 277 278 278 277 275 275 276 278 279 280 280 280 281 281 281 280 280 279 279 279 279 280 280 280 280 280 281 281 280 277 277 276 276 275 275 275 275 275 275 275 275 275 275 274 274 274 273 272 271 270 269 269 268 268 266 266 266 264 264 263 262 262 262 262 262 261 261 261 260 260 260
277 274 271 273 278 277 278 277 277 277 276 276 275 275 276 275 276 276 276 275 275 275 276 277 279 280 280 280 281 281 281 281 281 280 280 280 280 280 280 278 277 278 278 278 277 277 276 276 275 275 275 275 274 274 274 275 275 274 273 273 273 272 271 270 268 268 267 266 265 265 264 264 264 263 263 262 262 261 261 261 261 261 260 260 260
275 276 275 274 277 277 277 277 277 276 275 275 275 275 275 274 274 275 275 275 275 276 275 275 274 273 273 276 277 279 280 280 281 281 281 281 281 281 277 276 276 276 277 277 277 277 277 277 277 276 276 275 275 275 275 274 274 274 274 273 272 272 270 270 267 266 266 266 265 265 264 264 263 262 263 262 262 262 261 261 261 261 260 260 260
275 275 275 275 276 276 276 275 275 275 275 273 273 273 272 272 272 273 273 273 273 273 274 271 270 270 272 272 271 274 275 276 276 278 279 280 281 280 279 278 277 277 276 276 277 277 276 277 277 277 277 276 276 275 274 274 273 273 273 273 272 271 271 270 268 266 266 265 264 264 264 263 263 262 262 262 261 261 261 261 260 260 259 259 259
274 275 275 273 273 272 272 272 271 271 271 271 271 272 271 271 271 271 271 271 271 270 270 269 270 271 272 271 270 270 270 272 273 274 275 276 277 278 278 278 278 277 277 277 277 276 276 277 277 276 276 276 276 275 274 274 273 273 272 272 271 271 271 270 268 267 266 265 264 264 264 263 263 262 261 261 261 260 260 260 260 259 259 258 258
271 271 271 270 271 272 272 270 269 270 270 270 270 270 269 269 269 269 270 270 269 269 269 269 269 269 270 270 268 268 269 270 271 271 272 273 275 276 276 277 277 277 277 277 277 276 276 276 276 276 276 276 275 275 274 274 273 273 272 272 271 270 270 268 267 266 265 264 264 264 263 263 263 262 261 261 260 261 260 259 259 259 258 258 258
271 270 270 270 271 270 269 269 269 269 268 268 268 269 268 268 269 269 269 268 268 268 268 268 268 268 268 265 266 267 268 269 269 269 270 270 271 272 273 273 274 275 275 276 276 276 276 276 276 276 276 276 275 275 274 274 273 272 271 270 269 268 268 268 266 265 264 264 263 263 263 262 262 261 260 260 260 260 260 259 259 259 258 259 259
271 270 268 270 270 269 268 268 269 269 268 268 268 268 269 268 268 268 268 268 268 267 267 267 268 266 266 265 268 269 268 268 268 267 268 268 269 270 271 272 272 273 273 273 273 272 272 273 274 274 275 275 274 274 273 273 272 271 269 268 268 267 267 266 265 265 264 263 263 263 263 262 261 260 259 259 260 260 259 259 259 258 258 258 258
271 270 270 269 268 268 268 267 268 266 267 266 267 268 267 267 267 267 266 266 266 266 266 266 266 264 265 266 267 269 268 268 268 267 267 268 268 268 269 270 272 272 271 271 270 269 269 270 270 270 271 271 271 271 270 270 269 268 267 267 266 265 265 265 265 264 264 264 263 262 262 261 260 259 259 260 258 259 258 258 258 258 258 258 257
269 270 270 268 268 269 268 267 266 266 266 266 267 265 265 266 266 266 266 266 266 265 266 265 265 263 263 266 267 268 268 268 266 267 267 267 268 268 268 269 269 270 269 268 268 268 268 268 268 268 269 268 269 268 267 268 267 266 265 265 264 264 264 264 264 263 263 263 263 262 262 260 260 259 259 258 258 258 258 257 257 257 257 257 256
268 268 267 267 267 267 266 266 266 266 267 265 264 264 263 265 265 265 265 264 264 264 265 265 265 264 263 264 264 264 265 265 265 266 266 266 267 267 268 268 268 268 267 267 267 266 267 266 267 267 266 266 266 266 267 267 266 265 265 265 264 264 264 264 263 263 263 263 262 261 260 259 259 258 257 257 258 257 257 256 256 256 256 256 256
267 267 266 266 265 265 264 264 265 264 263 263 264 263 262 264 265 264 264 264 263 263 263 263 263 262 262 262 262 262 262 263 263 263 263 264 264 265 266 266 266 265 266 266 266 265 265 266 265 264 264 265 265 265 265 265 266 266 266 265 265 264 264 264 264 264 263 262 261 260 259 258 257 258 257 257 257 257 256 256 256 255 255 255 255
266 266 266 265 264 263 262 263 262 264 264 264 264 263 263 263 263 262 263 263 262 262 262 262 262 261 262 262 262 261 262 261 261 262 262 262 263 264 265 265 265 265 265 265 263 261 263 263 264 264 264 263 262 263 263 262 262 263 263 263 264 264 264 264 263 262 261 261 261 260 259 258 257 257 257 257 257 256 256 256 256 255 255 255 255
264 265 264 264 263 262 261 261 262 262 262 263 263 262 262 262 261 261 260 261 261 261 261 261 261 261 261 261 261 261 261 261 261 261 260 260 260 261 262 261 262 262 262 261 259 260 259 259 260 260 260 261 261 259 260 261 261 261 261 261 261 261 262 262 261 261 260 260 260 260 259 258 257 257 256 256 256 256 255 255 255 254 254 255 255
263 263 263 262 262 261 261 261 261 259 261 261 261 261 261 260 260 260 260 260 260 260 260 260 260 260 260 260 260 260 260 260 260 260 260 260 260 260 259 258 259 260 260 259 259 259 259 259 258 258 258 258 258 259 259 259 259 259 260 260 260 260 259 258 259 259 260 259 259 259 258 258 258 257 256 255 255 255 254 254 254 254 253 253 254
262 262 261 262 262 261 261 261 261 261 261 260 260 260 260 260 259 260 259 259 260 260 260 260 260 260 259 260 260 260 260 259 259 259 259 259 259 258 258 257 257 257 258 259 258 257 257 257 257 258 257 258 258 258 258 258 258 258 258 258 258 257 257 256 257 258 257 258 257 257 257 257 257 256 255 254 254 254 254 254 254 254 254 254 253
261 260 261 260 260 260 260 260 261 260 259 260 260 260 259 259 259 259 259 259 259 259 259 259 259 259 259 259 259 259 259 259 259 259 259 258 258 258 258 257 256 257 258 258 258 258 257 257 256 256 256 256 256 256 258 258 257 258 257 257 257 257 257 256 256 256 255 257 256 256 256 256 255 255 255 254 253 253 253 253 253 253 254 253 253
259 259 259 259 259 258 259 259 259 258 259 259 259 259 259 259 259 259 259 258 259 259 258 258 258 258 258 259 259 259 258 258 259 258 258 258 257 257 257 257 256 256 256 256 256 257 256 256 256 256 255 255 255 256 256 256 256 256 256 257 257 257 257 256 256 256 255 255 255 255 254 254 253 253 253 253 253 253 252 253 252 253 253 253 253
Wind_Speed
12 12 9 9 10 10 10 9 9 7 8 7 8 7 7 7 7 7 8 8 8 8 9 9 9 9 9 9 9 9 9 8 7 7 7 7 6 7 7 7 8 7 7 7 5 6 6 6 5 5 5 5 4 4 4 4 3 3 3 3 3 2 1 1 2 3 1 3 0 2 2 3 5 3 4 5 5 4 5 4 5 6 6 6 7
12 11 10 8 10 9 9 9 8 9 9 8 9 8 7 8 7 8 9 9 9 9 10 9 9 10 9 9 9 8 8 8 8 7 8 8 8 5 7 8 8 8 7 8 7 5 6 6 5 5 4 4 5 5 5 5 4 4 3 3 3 3 2 2 2 2 3 1 1 1 2 2 5 3 4 6 5 5 5 4 3 4 5 6 6
11 10 9 10 11 10 9 8 8 11 10 9 9 8 8 8 8 9 9 9 9 9 10 10 11 10 9 9 9 9 9 8 7 7 8 9 9 7 7 8 8 9 8 8 8 7 7 6 6 5 3 4 5 4 4 4 4 4 4 3 3 3 3 2 2 2 3 4 1 2 3 3 4 5 5 4 5 5 5 5 4 4 4 6 6
10 11 9 8 9 10 9 7 8 9 10 8 10 10 8 8 8 8 9 9 10 9 9 10 10 10 10 10 9 9 9 8 7 7 8 8 8 9 8 7 6 7 7 8 7 7 7 6 6 6 5 5 5 5 4 4 4 4 4 3 3 4 3 3 2 2 2 3 3 2 3 4 4 4 4 4 4 4 5 5 4 5 5 6 7
10 10 10 11 10 10 10 9 10 10 10 9 11 10 9 9 8 10 10 10 10 10 9 9 10 11 10 11 10 10 9 9 9 8 7 6 7 8 7 6 5 5 5 6 6 6 6 6 6 6 6 6 5 5 5 6 5 4 5 4 4 4 3 3 3 2 3 4 4 2 2 4 4 5 4 4 5 5 5 5 4 5 5 6 7
11 10 10 11 10 11 11 10 11 12 11 10 10 9 9 9 10 8 10 11 10 10 11 9 10 11 10 11 10 10 10 9 9 9 8 7 6 6 6 5 5 4 4 4 5 4 5 5 6 6 7 6 6 5 6 7 5 5 5 5 4 4 4 3 3 3 3 4 3 4 3 4 4 4 3 3 5 6 5 4 5 5 5 5 6
12 11 11 12 11 12 11 11 11 11 11 10 9 10 10 10 9 10 10 11 11 11 10 10 9 10 11 11 11 11 10 9 8 9 9 8 8 7 6 5 5 4 4 4 4 4 3 3 4 5 6 6 6 6 6 6 5 6 6 5 5 4 4 4 4 4 3 3 3 3 4 4 4 5 4 3 5 6 6 6 5 4 4 5 7
12 12 11 11 10 11 11 12 11 11 11 10 10 10 10 9 9 8 9 11 11 11 12 11 10 9 10 10 10 10 10 9 8 8 8 8 8 7 7 6 6 4 5 4 4 3 3 3 4 5 6 5 5 5 6 6 5 6 5 5 5 5 4 4 4 3 3 3 3 3 3 4 4 4 4 5 5 5 3 4 7 6 6 5 6
12 12 12 12 11 10 10 9 9 10 8 7 7 8 8 8 8 8 9 9 8 10 10 11 11 10 9 9 10 8 8 7 7 8 9 8 8 9 8 7 6 6 5 4 4 4 4 4 4 5 4 2 1 1 3 3 5 4 5 5 6 6 5 3 3 3 2 2 3 3 4 4 5 5 5 5 5 5 5 6 7 6 6 7 6
13 13 13 12 9 8 9 8 10 9 9 8 7 8 8 7 7 7 8 8 8 9 10 10 10 11 12 11 10 8 7 5 8 12 10 9 9 7 6 6 6 6 6 5 4 4 5 4 4 4 3 4 5 5 5 5 5 3 4 6 5 5 5 4 4 3 2 3 3 3 4 5 5 5 5 6 5 5 6 6 7 7 6 7 6
13 13 13 11 10 9 9 10 9 9 7 7 6 8 9 6 5 6 7 6 8 9 8 9 9 8 9 10 10 7 5 6 16 16 16 15 9 8 8 7 6 6 6 6 6 6 5 5 4 5 5 6 6 9 9 10 9 8 5 6 6 6 6 5 5 5 4 4 4 4 5 6 7 6 6 5 5 5 6 6 6 6 6 7 8
14 14 13 12 11 11 11 10 10 8 8 8 8 7 8 8 9 10 8 6 5 5 8 8 9 9 8 8 8 8 7 12 19 18 19 18 13 8 6 6 6 6 6 6 5 5 6 5 5 4 6 7 7 7 10 12 11 11 11 11 11 12 9 7 6 5 6 5 5 5 5 6 6 6 5 5 5 5 6 6 6 6 6 6 6
13 13 11 12 11 12 11 11 10 8 8 10 8 10 11 11 11 11 9 5 5 6 4 8 10 9 9 10 8 8 7 17 20 20 19 18 16 10 5 6 6 6 6 6 7 6 6 5 5 5 5 9 8 7 8 9 12 14 13 13 14 14 14 14 11 6 5 6 6 6 7 6 7 6 5 4 5 7 6 6 6 7 7 7 7
11 11 10 11 11 10 10 10 8 8 10 11 8 9 12 13 12 11 10 10 11 10 11 9 7 8 8 10 12 12 9 16 19 19 18 18 17 11 5 7 6 6 7 7 7 7 8 7 6 6 6 7 8 8 8 8 9 10 11 11 12 14 16 16 16 15 11 7 7 8 7 7 7 5 4 4 6 6 6 7 6 7 8 8 9
11 11 10 11 11 10 10 10 9 9 12 11 11 12 12 11 11 9 9 11 11 11 11 11 9 10 11 9 6 5 7 18 19 20 20 19 18 12 5 6 5 6 6 7 7 7 8 7 7 6 7 8 8 10 10 9 8 7 8 9 10 9 11 12 13 12 11 10 10 9 7 6 6 6 6 6 7 6 6 7 7 7 8 10 10
10 11 10 9 10 11 10 8 9 8 9 9 9 10 11 10 10 6 7 5 6 6 6 7 12 12 10 9 9 8 9 20 21 21 21 20 20 7 6 6 6 6 6 7 8 6 7 7 7 8 8 9 11 16 13 9 7 10 10 7 7 7 8 10 13 12 11 10 9 8 7 6 7 7 7 6 5 5 5 6 5 6 7 9 8
11 11 10 10 11 11 11 10 8 11 8 10 12 12 12 11 8 6 8 6 7 10 10 9 8 10 12 12 13 11 11 18 22 22 21 22 15 6 7 5 5 7 7 6 6 7 7 8 8 7 8 9 12 16 18 14 7 12 9 8 7 6 9 9 13 15 15 14 13 12 13 13 13 13 12 12 7 4 4 6 7 6 7 7 8
10 10 11 10 11 12 12 10 12 13 12 13 13 11 10 8 9 10 11 11 11 11 9 11 11 11 13 13 12 12 11 16 22 22 22 22 13 8 7 7 6 6 6 6 5 6 8 12 11 9 8 9 12 17 18 15 9 9 8 8 8 9 10 9 6 10 17 18 18 17 16 16 15 14 12 10 9 7 6 8 6 5 6 7 8
11 12 12 11 11 10 8 11 10 12 13 13 12 12 11 10 9 9 9 8 9 7 7 6 5 4 7 8 7 9 10 14 22 22 22 22 14 7 7 6 6 7 7 6 6 6 7 10 16 13 11 10 14 17 20 17 11 11 11 7 9 11 12 8 9 8 9 10 12 13 14 12 9 8 7 8 7 9 8 8 7 7 7 6 6
11 10 9 9 8 7 8 11 11 11 12 10 9 9 7 6 7 7 7 4 5 5 4 4 7 3 4 5 6 6 9 10 14 21 21 22 19 9 7 8 8 8 7 7 7 7 7 7 11 19 20 18 16 18 19 22 14 11 9 9 9 14 8 7 9 8 8 9 10 11 12 9 6 4 4 5 6 7 8 8 7 6 7 6 6
9 9 8 7 6 6 6 10 11 10 9 9 9 8 7 8 9 9 7 5 6 5 7 5 5 5 5 5 5 6 8 11 12 20 21 21 22 15 8 9 7 7 7 7 7 7 7 8 8 15 21 20 19 19 21 22 21 12 11 11 12 6 4 6 9 12 8 8 8 8 9 6 4 4 4 5 5 6 6 8 8 8 7 6 6
8 7 6 6 8 9 9 8 9 8 9 9 9 7 7 9 9 9 6 7 10 9 8 7 7 5 5 7 7 8 7 10 10 17 21 22 23 24 10 10 10 8 7 7 7 8 9 8 8 12 18 20 22 22 22 22 23 18 15 18 19 16 8 6 6 8 10 10 10 11 9 6 5 4 5 5 5 6 6 7 8 9 8 8 7
7 6 8 10 9 10 9 10 9 8 8 8 11 10 9 10 10 10 10 10 11 11 10 10 9 7 6 6 5 6 6 7 12 11 18 24 25 25 22 10 15 11 9 9 10 10 8 8 8 10 17 19 20 22 22 23 21 18 24 21 19 20 16 10 10 11 11 11 10 12 10 6 6 5 5 5 5 6 6 7 7 8 8 8 8
7 9 7 8 9 8 9 9 8 7 9 9 8 9 9 10 9 9 9 10 9 8 6 6 5 7 7 6 6 7 6 6 9 13 13 22 23 24 25 23 18 11 10 10 9 9 8 9 8 12 16 18 20 20 22 22 18 23 23 25 23 20 14 13 12 12 11 12 11 10 9 7 6 6 6 5 5 6 6 6 6 7 6 7 7
9 7 7 7 7 7 6 7 7 7 8 9 10 9 10 9 8 6 6 6 6 6 6 7 7 7 7 8 8 7 7 6 6 10 14 13 20 22 23 24 24 23 14 11 10 9 9 11 11 13 15 17 19 19 20 23 26 25 26 24 23 15 16 14 12 11 11 12 9 8 7 7 6 5 4 4 4 4 4 4 4 5 4 4 5
8 9 8 7 7 8 9 7 7 7 8 8 8 9 10 10 8 9 8 7 7 8 8 9 9 8 8 8 7 7 6 5 5 5 7 11 12 19 22 23 23 23 22 18 16 15 15 14 13 15 16 15 13 13 14 15 21 25 26 24 15 16 15 14 7 11 11 9 8 8 6 4 4 4 4 4 4 5 5 4 4 4 4 4 5
9 7 8 7 7 8 9 8 7 7 7 6 7 7 7 8 8 9 9 9 9 9 9 9 8 8 8 8 7 6 6 7 6 6 6 6 7 8 10 13 19 20 15 15 15 14 14 13 10 12 10 15 18 16 15 15 15 15 14 15 16 16 16 10 7 8 8 6 7 4 3 4 4 5 5 5 5 5 5 4 4 4 3 4 4
8 7 8 7 7 8 7 10 10 8 8 8 8 7 7 8 9 10 11 10 11 11 10 9 9 9 9 8 7 6 7 7 7 7 7 8 7 7 7 7 8 9 10 10 10 10 6 8 12 11 11 12 13 13 13 12 12 12 13 12 13 14 14 11 13 6 5 5 5 6 3 4 5 5 5 5 5 5 4 4 4 4 4 3 4
9 9 7 7 7 7 7 8 8 8 8 7 6 8 9 9 8 7 6 8 9 10 9 8 8 8 7 8 8 7 7 8 9 10 9 9 8 7 7 8 8 8 11 12 8 8 8 10 11 10 10 11 9 10 10 10 10 11 12 12 11 11 9 4 6 7 6 6 8 6 5 5 5 5 5 4 5 5 4 4 4 4 4 4 6
7 7 7 7 7 8 7 7 6 7 7 8 6 4 3 4 4 5 7 10 10 6 5 5 6 6 6 6 7 9 9 6 6 12 14 16 18 19 15 14 13 11 9 14 10 8 9 9 10 10 10 9 9 9 9 9 9 10 10 12 12 9 4 5 6 6 5 7 5 9 7 5 5 5 5 5 4 4 5 6 4 5 5 6 6
6 6 7 7 8 8 7 7 7 6 6 6 6 6 4 3 4 6 2 7 8 9 8 6 5 7 5 5 5 9 6 2 7 12 14 16 18 18 19 19 18 18 17 9 8 10 9 10 10 9 11 11 12 11 9 9 10 9 10 9 10 6 7 5 7 5 6 7 8 8 9 6 6 6 6 5 5 4 4 5 5 6 6 6 6
7 7 7 6 8 8 6 6 6 6 5 5 6 6 6 5 4 6 7 8 10 12 12 11 10 10 12 9 5 3 7 10 9 10 12 14 16 16 17 17 17 17 16 15 9 8 8 9 9 9 9 10 11 10 9 10 9 9 8 8 9 6 9 9 7 10 10 9 9 8 9 7 5 7 6 5 4 4 5 5 6 6 6 6 7
7 6 5 6 7 7 6 6 6 6 6 6 6 6 6 6 6 5 5 8 9 10 12 13 13 12 12 12 12 9 7 7 11 12 12 12 13 14 14 15 15 14 14 11 11 10 9 9 9 8 8 8 8 9 9 9 9 10 10 10 10 7 7 8 7 9 9 9 8 10 10 10 8 6 5 5 5 5 5 5 5 6 6 6 6
8 7 6 7 7 6 6 6 6 6 5 5 6 6 6 5 5 6 6 4 5 7 10 12 12 12 12 12 12 12 11 11 11 11 12 12 13 13 12 10 13 15 14 10 10 11 10 11 10 9 7 7 6 6 8 9 8 9 9 9 8 7 9 7 8 8 9 9 9 10 10 6 8 6 5 5 5 5 5 5 5 6 6 7 6
5 7 11 10 5 6 6 5 5 5 5 5 5 5 5 4 4 5 6 6 6 6 5 6 10 12 8 9 13 13 13 12 12 12 12 11 11 11 11 8 9 9 11 12 11 11 10 10 9 9 10 10 8 7 8 9 10 9 8 8 8 5 5 7 7 8 7 6 7 6 6 8 9 6 6 6 6 6 6 6 6 6 7 6 6
7 5 6 7 5 5 5 5 5 6 6 6 5 4 4 5 4 4 3 3 3 4 3 2 2 3 4 2 3 4 8 11 12 13 12 13 12 12 9 9 9 9 10 10 10 11 10 9 8 9 9 10 10 9 10 9 7 8 7 6 7 5 6 6 5 7 7 7 6 7 7 7 6 6 5 5 7 7 6 6 6 6 6 6 5
5 5 6 5 5 4 4 3 3 4 4 4 4 3 3 3 2 2 2 3 2 2 2 2 1 1 1 1 0 2 1 1 2 5 9 11 13 11 10 9 9 9 9 10 10 11 11 11 10 9 8 8 9 9 7 6 5 6 6 6 5 5 8 7 6 5 6 6 6 6 7 6 6 6 7 7 6 6 6 6 6 5 5 6 5
5 5 4 5 4 4 4 4 4 6 4 4 3 4 4 3 3 3 3 3 3 3 2 2 3 2 4 3 4 2 1 2 1 4 5 5 5 7 9 10 10 8 7 8 9 9 10 10 10 10 11 10 8 4 5 6 6 6 6 6 6 6 9 7 6 7 7 4 5 6 6 6 5 6 5 6 6 6 6 6 6 5 6 6 6
3 6 9 8 5 5 5 5 5 5 4 4 4 4 3 4 4 4 3 3 3 3 2 2 3 3 2 2 2 2 2 2 3 4 4 5 6 7 8 8 8 9 8 8 7 8 9 8 8 9 9 9 7 5 5 6 6 6 6 6 7 5 6 6 5 6 5 7 6 5 5 5 5 5 6 5 5 6 6 6 6 6 6 6 7
5 5 6 9 5 4 3 3 5 5 3 5 4 4 4 4 4 4 4 4 4 3 3 3 3 2 2 2 2 2 3 2 2 2 2 2 3 3 4 7 8 8 7 6 7 7 8 8 8 8 8 8 5 5 6 6 6 6 4 4 4 5 6 6 5 5 6 6 5 6 6 6 6 4 4 5 5 5 6 6 6 6 6 6 6
4 5 6 5 5 5 4 4 4 5 4 4 4 4 4 3 3 3 3 3 3 3 3 2 2 1 2 2 4 4 2 2 1 1 2 2 2 3 3 4 5 7 6 6 3 2 3 4 5 5 6 5 4 4 4 4 4 3 4 4 4 4 5 5 5 5 5 5 6 6 6 5 5 5 6 6 5 5 5 4 4 4 5 5 5
5 5 5 5 5 4 4 3 3 3 4 3 3 4 3 3 3 3 3 3 2 2 2 2 2 1 2 4 4 5 3 3 3 3 3 3 3 3 4 4 5 5 5 4 3 2 3 4 4 4 4 4 2 1 1 1 1 2 3 3 4 4 4 5 6 6 6 6 6 5 5 5 5 5 5 4 5 5 5 5 5 5 5 5 5
4 4 4 3 4 4 4 4 4 4 4 3 2 3 3 3 3 2 3 2 2 2 2 2 2 1 1 3 4 5 4 4 5 5 4 4 5 5 5 5 5 6 3 1 1 2 3 4 4 3 3 3 2 1 1 3 3 3 3 4 4 5 5 5 4 5 5 6 5 6 5 4 4 4 4 4 5 5 5 5 5 5 5 4 4
4 4 3 3 3 3 2 3 3 3 2 3 4 2 2 2 2 2 2 2 2 2 2 2 2 2 2 2 3 3 3 3 3 4 5 4 4 4 4 4 4 3 1 1 1 1 2 2 2 1 1 1 1 2 2 2 3 4 4 5 5 5 5 6 6 6 6 5 4 4 4 4 4 4 4 4 5 5 5 5 5 5 4 4 5
3 4 4 4 3 3 2 2 2 3 3 3 2 2 2 2 2 2 2 2 2 2 2 2 2 2 2 2 2 3 2 2 2 2 2 2 2 3 3 4 4 2 2 2 1 1 2 3 2 2 2 2 2 2 2 2 3 3 4 5 5 6 6 6 5 3 3 4 4 4 4 4 5 5 5 5 6 5 5 5 5 5 5 5 5
3 4 3 3 3 2 3 2 2 3 3 3 3 2 2 2 2 2 2 2 2 2 2 2 2 2 2 2 2 2 2 2 2 2 2 2 2 2 2 3 3 3 2 2 1 1 2 2 3 3 2 1 0 1 0 0 0 1 1 1 1 1 1 0 0 1 2 4 4 4 4 4 5 5 6 4 5 5 5 4 4 5 5 5 6
3 3 3 3 3 2 2 2 2 2 2 2 2 2 2 2 2 1 1 2 2 2 2 2 2 2 2 2 2 2 2 2 2 2 2 2 2 2 2 1 1 1 1 1 0 1 1 1 2 1 1 1 0 0 1 0 0 0 1 1 1 1 1 0 0 2 2 3 3 3 4 4 5 4 5 5 4 4 5 5 5 5 5 5 5
3 2 2 3 3 3 3 2 3 3 2 2 2 2 2 2 2 2 2 2 2 2 2 1 2 2 2 2 2 2 2 1 1 1 1 2 2 2 1 0 1 1 1 1 1 1 1 1 1 1 1 1 1 1 1 1 1 1 1 1 2 2 1 2 1 2 2 3 4 4 4 5 4 4 4 5 5 4 5 5 4 4 5 5 5
2 3 3 3 2 3 3 3 2 2 2 2 2 2 2 2 2 2 2 2 2 2 2 2 2 2 2 2 2 2 1 1 2 1 2 2 1 1 1 1 1 1 1 2 1 1 2 2 1 2 2 2 1 2 1 2 2 2 2 2 2 4 4 4 2 1 2 2 3 3 3 4 4 4 4 4 4 4 4 3 4 4 4 4 4
2 2 3 3 2 2 2 2 2 2 1 2 2 2 2 2 2 2 2 2 2 2 2 2 2 2 2 2 2 2 2 2 2 2 1 1 2 1 2 2 2 2 2 2 2 2 2 2 2 2 2 2 2 2 2 2 2 2 2 2 5 6 6 6 7 4 4 3 3 3 3 4 3 3 3 4 4 4 4 4 4 4 4 4 6
2 3 3 3 3 2 2 2 2 1 2 2 2 2 2 2 2 2 2 2 2 2 2 2 2 2 2 2 2 2 2 2 2 2 2 2 2 2 2 2 3 3 3 3 3 2 2 2 2 2 2 2 2 2 2 2 2 2 5 7 7 7 8 8 5 8 9 5 3 3 4 4 4 4 4 4 4 4 5 5 4 4 5 6 6
Wind_Direction
188 192 181 184 175 182 177 173 175 164 168 166 171 171 164 161 164 159 145 157 152 150 141 139 142 142 138 139 139 140 141 139 136 132 125 125 121 121 123 122 121 122 126 123 120 127 132 132 137 140 151 150 146 145 141 138 131 121 126 129 123 120 144 185 236 272 161 114 353 299 339 329 317 313 307 312 322 334 326 324 328 339 338 342 338
186 184 181 174 182 183 177 179 173 167 175 174 177 170 162 166 156 149 162 154 156 154 147 143 147 146 143 142 140 139 139 137 137 137 134 129 124 124 130 134 135 137 137 140 139 136 142 140 141 147 159 154 152 153 151 152 149 141 147 153 141 143 163 200 250 252 288 182 213 178 270 283 293 299 317 321 324 320 318 319 324 337 331 326 325
181 182 179 181 185 182 177 176 168 175 173 177 180 168 168 164 157 163 163 155 157 157 153 150 150 148 143 142 141 140 144 142 143 142 140 137 135 138 145 148 148 149 149 149 149 144 144 144 149 154 162 163 161 155 153 155 152 153 154 160 156 149 160 201 211 248 261 279 291 269 281 288 283 305 317 308 302 299 305 316 319 316 310 308 309
179 182 181 181 178 176 177 164 169 174 175 177 179 173 166 164 160 164 160 158 158 155 153 150 148 148 144 144 145 143 144 143 141 141 140 141 141 145 151 153 152 153 148 147 148 148 149 149 157 165 173 174 171 164 169 165 160 160 165 168 165 160 158 170 208 233 266 267 256 250 286 296 298 306 305 292 289 308 311 302 294 294 291 293 300
177 183 181 182 180 182 179 170 177 184 180 174 176 168 167 165 167 165 159 162 160 153 151 153 152 151 151 151 147 147 148 146 145 142 136 137 142 144 149 147 147 143 137 136 139 146 152 158 159 170 180 180 177 177 175 174 170 170 175 169 176 168 164 178 179 204 231 253 270 269 268 282 293 293 287 301 309 310 302 288 288 287 281 287 290
180 180 183 182 183 184 179 175 183 184 184 179 168 162 166 170 168 165 165 161 159 159 156 159 160 156 151 150 148 146 146 149 148 145 139 135 132 131 133 136 134 122 114 122 136 145 153 158 167 177 187 190 186 180 177 181 176 179 178 180 179 174 174 175 182 201 227 252 262 286 291 299 302 292 289 292 308 310 302 292 286 274 274 286 290
179 182 186 188 185 189 181 181 180 181 185 178 167 169 173 173 169 167 169 162 161 160 160 157 159 153 149 148 149 147 147 148 146 141 139 138 137 135 130 125 122 118 121 130 137 147 158 161 175 190 196 202 193 184 180 184 185 185 186 184 180 180 186 187 189 201 223 246 267 275 288 283 281 290 296 304 292 282 289 305 302 286 277 286 298
182 186 183 188 189 188 185 183 181 181 184 178 172 172 167 164 166 164 165 164 164 163 161 159 154 151 150 150 149 148 147 145 141 140 139 140 139 137 137 136 140 132 132 134 142 158 170 182 196 206 210 209 204 191 184 189 187 188 186 179 184 189 195 193 190 204 213 235 263 281 288 287 283 274 277 277 280 273 276 308 300 301 295 294 290
188 189 188 191 191 184 181 183 182 179 169 160 157 159 163 158 154 160 168 166 160 159 157 155 151 149 147 146 146 148 147 148 150 148 142 140 138 141 145 147 144 145 140 140 156 170 186 203 210 211 216 227 298 262 210 207 191 191 186 183 192 195 200 193 194 200 220 232 258 268 267 272 274 274 275 278 283 293 307 297 287 289 298 298 295
186 189 193 191 177 168 172 171 180 174 172 165 157 162 161 152 146 154 167 164 156 154 153 155 156 155 154 155 156 154 154 147 148 146 142 142 145 137 134 142 147 142 146 150 168 186 200 202 210 209 207 215 224 230 227 216 232 234 197 184 190 198 194 187 197 198 203 225 241 252 261 264 267 267 271 276 287 289 288 290 291 303 306 297 291
190 192 193 184 171 159 166 177 168 167 155 141 151 158 159 148 146 153 164 163 160 163 159 157 157 150 150 150 152 153 142 145 154 156 154 151 143 144 147 149 144 143 152 165 173 185 195 198 203 198 206 215 221 223 227 223 220 227 226 216 208 200 184 186 198 193 199 221 228 234 247 258 258 260 263 274 274 280 286 292 298 308 318 324 318
191 195 190 182 174 167 172 166 164 161 151 165 166 162 160 160 168 173 172 159 156 144 158 162 156 155 152 155 154 147 140 157 161 162 163 161 156 145 148 146 151 158 167 171 172 177 186 188 196 193 207 209 210 212 220 221 220 221 224 224 225 224 213 196 186 193 198 207 225 230 234 247 254 249 253 260 274 287 286 291 292 299 304 305 299
192 190 180 177 174 174 171 165 161 157 163 164 162 171 174 173 175 177 176 152 136 155 153 151 169 165 162 155 150 149 143 170 170 165 163 162 160 150 147 148 153 168 172 177 182 182 180 184 190 199 205 205 209 213 210 214 218 220 222 225 227 226 222 221 219 208 199 215 224 234 231 243 250 249 246 257 283 280 287 286 289 290 291 288 289
187 186 180 177 173 172 168 169 162 158 164 172 162 168 175 180 180 177 171 168 171 172 176 174 166 166 157 160 168 172 156 172 166 161 159 161 161 152 142 152 163 171 178 182 186 188 187 184 188 197 197 198 208 209 211 212 210 215 219 222 225 223 223 222 219 217 218 218 221 233 237 234 247 249 252 267 268 269 275 279 284 284 280 278 294
183 184 178 177 171 169 168 167 168 162 173 173 173 179 182 182 179 177 172 175 174 175 173 175 172 168 175 174 155 149 164 172 169 166 165 165 165 157 144 150 164 177 187 191 193 192 192 192 196 198 193 198 205 203 204 206 207 210 212 215 220 221 219 220 219 217 218 224 230 240 241 235 241 248 253 259 255 252 263 271 278 279 283 288 284
179 181 174 171 168 172 164 163 165 163 165 166 166 175 182 182 178 164 163 156 167 160 155 162 173 180 173 166 161 166 176 180 173 168 166 167 168 149 152 162 174 181 191 196 198 197 196 196 202 208 202 204 208 204 203 202 206 206 215 217 222 227 229 227 223 220 220 223 228 231 237 230 228 244 249 237 240 255 269 274 268 269 277 282 278
186 182 178 173 170 167 166 164 158 168 163 168 179 182 178 176 169 157 173 173 169 177 175 171 169 176 178 178 175 176 176 182 174 168 168 169 164 142 158 166 182 189 201 195 196 195 202 204 206 203 207 213 207 205 207 203 207 207 213 212 220 231 239 233 228 226 229 231 233 236 241 246 246 237 231 235 244 258 279 268 256 262 267 277 282
180 173 179 169 169 169 170 166 171 174 174 182 183 184 179 174 173 172 176 176 181 183 176 182 183 184 184 183 180 170 172 180 175 172 170 173 165 155 167 174 184 195 201 200 194 206 211 209 209 211 212 220 207 210 210 206 209 208 211 209 215 230 239 228 219 223 229 234 237 240 242 240 237 236 234 234 243 251 253 254 267 271 262 265 279
178 179 182 172 172 168 161 172 174 175 179 183 180 177 177 177 169 171 177 175 182 177 180 181 174 169 186 188 178 167 167 178 178 173 174 178 170 159 167 176 186 203 201 205 201 208 215 212 216 217 219 219 213 214 213 208 213 212 213 193 218 229 233 206 210 212 215 220 230 232 238 230 218 218 220 210 225 238 248 254 255 249 255 263 272
179 176 169 160 158 157 160 173 176 178 181 176 173 172 153 127 149 159 169 148 156 163 161 152 165 144 150 175 181 168 169 179 181 179 178 182 179 169 173 178 201 200 199 200 202 210 210 216 219 223 225 224 218 217 218 214 213 214 201 204 210 233 225 202 211 208 214 218 225 226 222 210 191 193 204 209 223 223 235 246 243 236 244 254 258
163 163 153 151 146 151 157 173 173 175 171 167 162 157 151 147 145 154 155 134 135 133 152 144 147 155 160 175 183 188 182 182 189 185 185 187 191 182 181 192 196 193 196 202 207 211 211 214 218 219 224 224 222 222 222 221 221 215 203 205 210 219 152 209 212 213 216 219 220 215 214 197 176 185 203 214 223 224 228 233 232 232 233 239 249
152 145 140 141 157 166 169 168 169 162 157 152 151 148 151 149 153 154 138 147 160 164 165 167 168 164 156 182 193 200 200 195 186 195 193 196 201 201 191 199 196 202 212 215 214 220 222 218 216 214 218 226 229 229 229 229 226 227 222 219 225 227 221 219 210 215 219 220 227 227 219 198 186 194 201 208 216 217 220 227 229 231 235 235 234
143 140 150 159 165 167 165 163 158 155 150 152 155 152 152 155 158 160 160 166 172 176 180 179 182 178 169 183 179 191 198 201 195 197 203 205 208 211 210 197 202 209 214 220 212 221 221 223 223 198 214 223 228 232 234 234 234 234 232 226 224 224 225 229 226 224 225 223 217 229 225 195 194 199 195 210 215 212 216 224 229 229 235 239 247
141 152 154 161 161 159 159 158 152 148 148 147 149 142 154 162 165 174 169 175 174 170 172 174 170 179 182 186 191 200 198 196 207 206 208 213 215 217 220 220 208 205 214 229 228 227 221 215 217 202 215 221 228 234 239 237 236 237 238 238 235 230 229 229 227 222 221 227 222 216 214 197 182 202 205 204 204 203 215 222 225 229 236 244 247
152 152 150 149 153 151 146 150 147 146 147 151 151 154 159 163 165 165 155 165 163 165 170 171 182 186 188 195 196 193 193 196 202 215 216 219 223 225 227 229 229 225 224 231 228 230 233 230 220 208 213 219 223 232 240 241 239 239 239 239 238 238 235 231 225 212 214 221 211 215 211 189 185 191 190 186 187 195 206 220 225 233 246 265 267
154 159 156 153 146 143 150 152 148 148 152 162 158 160 159 165 164 169 171 178 176 180 184 185 192 193 198 200 196 187 176 185 199 201 213 223 228 232 234 235 236 236 239 241 236 232 232 234 225 216 216 218 224 235 236 236 237 239 241 240 237 237 236 233 198 211 221 216 206 210 206 168 166 169 159 167 180 205 197 210 212 228 215 235 251
154 151 150 144 143 150 152 157 156 151 157 157 161 157 158 163 164 169 177 180 185 191 194 190 192 197 202 204 200 183 178 190 198 194 198 210 219 222 229 238 240 244 249 248 248 240 233 223 222 217 211 212 217 224 230 235 242 241 239 237 237 238 238 227 201 209 221 208 216 192 183 155 118 130 182 184 201 205 188 201 218 234 210 233 241
152 146 147 149 154 159 158 150 149 160 167 167 167 168 173 176 176 182 185 187 192 199 200 195 196 197 203 204 196 194 199 198 199 195 193 201 209 211 215 220 222 223 234 238 239 242 237 207 224 229 227 228 230 232 234 233 234 237 239 238 236 237 240 235 232 218 217 214 218 218 145 138 166 176 177 193 203 193 178 190 209 228 217 218 236
152 146 149 147 151 158 159 157 168 162 167 170 180 179 180 183 185 187 191 186 186 183 188 195 198 200 197 197 189 201 210 210 214 195 204 191 194 201 207 215 218 224 227 231 241 245 247 246 242 221 217 221 219 218 220 222 227 229 232 236 241 242 239 219 226 229 211 222 235 213 170 165 184 175 186 193 201 187 179 193 211 206 233 216 237
141 147 153 157 153 158 160 166 166 162 163 174 170 158 52 189 199 187 192 207 215 221 206 200 193 191 196 210 197 201 208 218 153 180 205 209 214 217 219 219 219 226 229 232 238 248 243 243 236 233 230 225 227 224 219 220 226 226 229 225 231 230 190 215 226 236 233 232 221 225 214 174 193 176 187 196 198 187 189 197 203 200 211 225 232
149 151 157 164 166 163 160 164 169 168 167 164 168 172 170 174 213 222 220 191 205 216 222 233 218 206 200 209 210 223 248 102 163 199 205 214 216 220 225 229 232 233 236 238 240 236 241 243 245 236 236 237 238 238 229 227 231 231 234 225 230 205 218 209 217 214 227 224 224 228 228 207 197 182 190 191 188 185 169 202 211 217 218 223 232
160 165 169 156 159 168 159 155 154 161 164 169 171 175 176 174 178 195 193 188 201 211 217 217 209 206 211 216 207 219 228 232 224 210 213 215 219 221 225 228 230 230 231 225 234 236 233 240 244 240 237 237 241 242 239 236 231 231 232 238 235 211 213 223 209 223 227 224 225 225 224 209 191 195 194 182 179 189 189 193 202 210 220 225 232
154 149 146 146 158 160 156 155 165 167 162 166 177 178 182 183 178 171 187 196 204 210 217 220 221 218 215 217 217 214 207 208 223 228 226 223 223 225 227 232 233 233 230 229 232 242 239 239 243 245 241 245 243 247 250 243 241 237 232 235 235 212 197 212 195 216 219 220 220 226 222 223 214 203 191 176 180 200 196 203 204 209 212 225 233
161 159 157 157 152 161 165 166 168 172 171 172 176 179 189 186 181 165 163 175 204 223 226 223 222 223 228 226 225 224 219 215 218 225 229 231 233 235 235 237 239 235 228 230 233 240 241 245 246 249 250 248 249 250 253 256 249 242 237 227 233 224 226 200 208 214 221 220 219 230 227 209 209 198 189 180 194 194 204 207 205 205 214 218 229
139 152 158 160 164 164 165 166 166 164 164 172 175 180 187 180 173 178 184 183 188 187 188 204 216 217 226 230 231 232 233 233 227 222 221 226 230 234 236 240 237 235 231 232 234 239 243 243 242 243 249 254 253 243 250 251 252 249 242 240 235 204 199 198 198 209 207 202 214 206 190 209 215 200 187 184 181 193 207 208 212 211 216 221 221
146 149 159 172 164 163 165 168 165 169 171 177 173 172 166 162 181 193 194 193 192 181 165 160 128 48 21 29 17 250 236 234 234 234 234 230 227 219 222 226 229 229 228 229 232 238 242 245 243 245 244 247 251 247 252 248 227 232 230 228 232 211 207 206 187 197 210 207 210 215 215 212 194 196 196 198 205 206 199 204 213 213 209 219 229
152 152 163 169 165 159 151 144 154 158 153 136 141 153 155 165 170 169 177 185 179 170 163 129 134 186 193 177 120 232 248 279 293 256 242 239 234 228 231 232 231 228 223 228 229 236 241 247 250 256 251 239 241 239 230 223 222 221 223 223 222 215 222 210 195 186 194 201 207 204 203 201 193 192 189 200 201 201 209 208 213 208 207 213 213
161 158 150 132 127 129 131 145 145 140 144 148 155 159 157 165 166 174 174 178 171 172 174 163 183 195 191 173 87 87 52 19 319 263 258 260 251 232 232 235 238 237 230 230 229 229 236 241 246 249 252 253 245 212 218 229 227 226 224 219 218 222 229 227 212 206 213 195 201 198 201 204 195 191 190 202 197 194 205 206 206 209 212 206 210
128 138 139 137 141 148 150 141 147 156 152 156 162 163 163 159 161 170 172 164 172 182 178 174 188 195 192 140 134 115 133 194 198 208 205 213 224 229 233 238 240 243 246 246 236 235 239 243 243 243 245 244 238 214 216 226 227 222 219 216 220 214 215 215 197 196 194 212 216 204 200 208 199 196 194 196 202 202 209 197 201 202 207 208 210
138 137 148 148 139 143 136 142 144 149 155 153 161 164 157 167 171 172 165 165 177 179 179 185 196 197 154 131 154 160 188 191 193 186 189 208 220 227 233 238 241 248 253 259 262 260 254 249 245 244 243 237 217 219 222 219 219 220 203 203 199 208 209 209 189 189 196 198 202 204 201 204 199 182 181 202 208 206 202 204 203 202 208 216 219
120 125 140 150 126 130 138 145 158 163 155 163 154 165 173 166 161 157 164 172 169 171 184 185 190 141 142 179 189 180 176 185 181 196 208 218 225 228 232 240 239 245 250 255 270 334 331 323 313 293 273 254 223 214 214 214 209 194 188 193 199 204 204 202 196 200 197 195 202 206 205 191 182 175 197 205 204 206 212 205 205 204 209 214 219
132 140 144 142 143 137 139 150 143 147 147 139 156 167 157 159 158 166 166 166 166 167 171 179 177 153 177 184 210 202 196 211 207 212 220 219 230 239 245 243 242 242 251 260 274 295 295 292 293 299 305 304 309 278 269 213 196 185 189 188 194 193 198 206 202 205 199 207 205 200 192 185 184 190 197 185 188 202 203 206 209 208 207 208 208
134 134 129 132 143 151 149 136 138 142 149 159 159 151 151 149 151 159 158 163 161 167 173 175 164 141 180 212 211 216 212 207 204 208 211 216 217 224 228 235 241 247 250 260 271 263 270 274 278 279 279 280 277 244 219 232 215 200 188 196 201 203 207 209 199 202 208 211 206 207 201 175 184 183 190 194 196 194 201 198 201 207 208 205 206
126 122 123 122 117 104 110 131 144 146 145 128 124 135 137 140 144 152 156 155 165 171 173 173 159 162 173 186 194 208 207 204 204 214 215 221 223 225 231 235 240 246 254 234 227 244 258 260 263 255 238 238 236 217 220 209 195 198 194 201 206 207 209 208 206 202 199 197 190 172 175 178 182 180 186 194 193 195 200 199 203 203 201 206 204
118 129 129 126 124 123 124 119 117 117 123 126 132 125 142 154 160 160 164 165 163 166 172 168 164 182 184 183 190 199 204 208 209 208 214 215 226 236 241 247 248 240 235 238 211 207 244 247 248 239 229 222 207 210 209 208 204 209 209 203 204 206 212 210 211 188 177 174 183 176 177 174 185 194 198 196 193 198 206 201 200 193 198 208 206
127 123 124 121 122 121 126 126 126 133 142 145 146 151 158 164 162 160 170 163 162 168 173 175 182 190 196 190 189 195 204 199 215 210 218 226 227 235 238 242 250 251 250 247 226 223 243 260 255 254 244 244 221 251 253 304 290 295 307 281 261 261 269 265 77 133 177 184 193 184 182 183 193 197 197 192 190 197 209 203 192 200 207 207 212
112 119 120 127 129 124 117 123 133 131 130 139 147 150 162 163 155 149 155 166 169 169 173 179 177 189 195 199 201 206 203 205 215 216 217 230 248 250 253 246 242 244 242 235 248 246 245 251 264 263 271 280 257 232 253 246 227 233 238 263 284 294 310 286 184 196 194 192 190 184 188 189 197 196 195 198 197 192 194 205 201 199 203 213 210
118 115 121 124 128 125 130 130 133 140 140 149 151 154 143 144 151 163 164 165 177 180 180 174 189 191 193 210 210 215 219 220 224 228 229 226 229 230 229 252 241 244 241 241 233 236 245 234 228 238 240 233 236 226 213 223 225 224 222 219 215 225 178 166 197 190 197 183 190 197 187 196 201 194 184 182 193 187 191 207 200 207 204 209 217
116 122 131 136 134 130 138 144 141 154 155 150 145 154 152 157 167 166 169 175 175 184 190 189 196 196 203 211 212 215 219 226 228 232 229 231 224 238 221 231 246 252 244 242 230 221 230 236 230 235 238 241 232 236 231 221 227 226 223 232 215 208 207 197 214 197 169 181 189 191 196 200 204 196 176 177 188 191 202 204 196 198 199 203 208
101 105 106 110 110 108 103 111 123 130 133 150 150 152 151 161 164 173 172 176 187 193 203 201 201 201 202 206 207 213 210 219 224 221 224 229 228 222 231 226 227 236 236 235 236 226 229 233 231 240 240 244 245 243 248 239 232 235 232 229 235 229 222 215 216 187 172 205 188 195 191 202 197 199 194 189 187 190 199 206 201 202 206 208 218
88 90 89 94 101 110 118 129 133 133 145 150 156 154 164 173 180 179 181 191 201 203 195 205 205 206 216 218 210 214 218 223 234 234 233 228 225 223 226 229 232 232 238 235 239 238 232 235 239 235 233 235 238 241 240 247 239 236 239 242 239 232 223 212 211 207 202 200 191 193 196 197 189 191 193 192 191 195 203 200 193 199 216 223 223